CZ-2D R/B, 41858

Orbit data source: Space-Track

CZ-2D R/B, 41858 is space debris in SSO originally from a launch on Fri, 11 Nov 2016 UTC launched from the Jiuquan Satellite Launch Center, China (JSC). Debris objects in space refer to the collection of defunct objects orbiting the Earth. Examples of debris include non-operational satellites, rocket bodies, and fragments generated from explosions, collisions, or faulty payload assembly.

Loading next visibility...
Identifier
41858, 2016-068B
Orbit
SSO
Country
Flag of CNCN / PRC
Related business
Manufacturer
BWYIC
Mission
Spacecraft
Bus & Motor
CZ-2 STAGE 2, Unknown motor
Mass
4,006 kg wet, 4,006 kg dry
Launch date (UTC)
2016-11-11 (10 years ago)
Launch vehicle
Unknown
Launch site
Jiuquan Satellite Launch Center, China (JSC)
Object type
Payload
Rocket body
Debris
Shape & HBR
Cyl, 4.5 m
Radar Cross Section
27.824 m², Large (>1 m²)

Expand to show TLE details & history
Last TLE update: 2 days ago

TLE from 2 days ago
0 CZ-2D R/B
1 41858U 16068B   26171.42103247  .00000092  00000-0  45634-4 0  9994
2 41858  98.6298 176.5073 0033258 167.8592 192.3403 14.37155297503439
Epoch: 2026-06-20T10:06Z
TLE epoch observation values (Epoch: 2026-06-20T10:06:17.205Z)
Latitude
-0.00003°
Longitude
116.29972°
Altitude
794.079 km
Speed
7.444 km/s
True Right ascension
11h 46m 01s
True Declination
0° 00' 00"
Sunlit
Object was in daylight at epoch
Visualization orbit readout
Latitude
Unknown
Longitude
Unknown
Altitude
Unknown
Speed
Unknown
Apparent Right ascension
Unknown
Apparent Declination
Unknown
Sunlit
N/A
Visualization observer readout
Local Sidereal Time
21:38:39
Azimuth
Unknown
Elevation
Unknown
Doppler factor
Unknown
Orbital elements
Apogee altitude
788.801 km
Perigee altitude
741.288 km
Semi-major axis
7,143.182 km
Eccentricity
0.00333
Inclination
98.6298°
RAAN
176.5073°
Arg. of periapsis
167.8592°
True anomaly
192.25918°
Mean anomaly
192.3403°
Eccentric anomaly
192.29971°
Mean motion
3.59506 °/min
Orbital period
100.14 mins
BSTAR
0.000045634
Loading maneuver chart data...
Computing Atmospheric mass density...
Loading historical data...
Loading historical data...
Loading historical data...
Loading historical data...
Loading historical data...
Loading historical data...
Loading historical data...

Documentation

Showing up to 5 results
|